Hourly Data Report for October 22, 2013

All times are specified in Local Standard Time (LST). Add 1 hour to adjust for Daylight Saving Time where and when it is observed.

OTTAWA INTL A
ONTARIO

45°19'00.000" N
75°40'00.000" W
114.90 m
6106001
71628
YOW

Download Data

Hourly Data (October 2013)
Hourly Data Report for October 22, 2013
Temp Definition
°C
Dew Point Temp Definition
°C
Rel Hum Definition
%
Wind Dir Definition
10's deg

Wind Spd Definition
km/h
Visibility Definition
km
Stn Press Definition
kPa
Hmdx Definition


Wind Chill Definition


Weather Definition


TIME
00:00 Legend Double Dagger 10.9 7.1 77 21 10 24.1 99.36     LegendNANA
01:00 Legend Double Dagger 9.6 8.1 90 21 11 24.1 99.32     Rain
02:00 Legend Double Dagger 9.3 8.2 93 19 13 24.1 99.28     Rain
03:00 Legend Double Dagger 9.2 8.3 94 19 17 24.1 99.20     Rain
04:00 Legend Double Dagger 9.1 8.2 94 20 16 24.1 99.19     Rain
05:00 Legend Double Dagger 8.9 8.2 95 19 10 24.1 99.11     LegendNANA
06:00 Legend Double Dagger 8.7 8.1 96 20 10 24.1 99.07     LegendNANA
07:00 Legend Double Dagger 8.3 5.4 82 24 22 24.1 99.12     Mostly Cloudy
08:00 Legend Double Dagger 6.8 3.8 81 23 18 24.1 99.19     LegendNANA
09:00 Legend Double Dagger 7.9 3.2 72 23 27 24.1 99.22     LegendNANA
10:00 Legend Double Dagger 8.8 0.8 57 26 32 24.1 99.22     Mostly Cloudy
11:00 Legend Double Dagger 8.6 -1.2 50 26 29 24.1 99.22     LegendNANA
12:00 Legend Double Dagger 9.6 -0.3 50 30 30 24.1 99.22     LegendNANA
13:00 Legend Double Dagger 9.5 -2.4 43 26 29 24.1 99.21     Mostly Cloudy
14:00 Legend Double Dagger 9.2 -3.4 41 24 27 24.1 99.20     LegendNANA
15:00 Legend Double Dagger 9.2 -3.0 42 25 23 24.1 99.21     LegendNANA
16:00 Legend Double Dagger 8.9 -2.4 45 23 19 24.1 99.25     Mostly Cloudy
17:00 Legend Double Dagger 8.2 -3.0 45 22 24 24.1 99.28     LegendNANA
18:00 Legend Double Dagger 7.6 -2.4 49 21 21 24.1 99.29     LegendNANA
19:00 Legend Double Dagger 6.1 -0.9 61 21 22 24.1 99.29     Mostly Cloudy
20:00 Legend Double Dagger 5.0 -1.2 64 21 19 24.1 99.28     LegendNANA
21:00 Legend Double Dagger 4.7 -1.1 66 22 21 24.1 99.30     LegendNANA
22:00 Legend Double Dagger 4.3 -0.5 71 23 18 24.1 99.27     Mainly Clear
23:00 Legend Double Dagger 4.2 0.2 75 23 19 24.1 99.27     LegendNANA

Notes on Data Quality.

Legend

  • E = Estimated
  • M = Missing
  • NA = Not Available
  • ‡ = Partner data that is not subject to review by the National Climate Archives
Date modified: